[[{"header":{"parameterUnit":"m.s-1","parameterCategory":1,"la1":30.2991,"la2":30.254,"lo1":-89.0895,"lo2":-89.0444,"dy":0.0017,"dx":0.0017,"nx":28,"ny":28,"refTime":"2024-05-19T09:00:00:Z","depth":0,"parameterNumber":2,"parameterNumberName":"U-component_of_WINDS"},"data":[0,0,0,0,0,0,0,0,0,0,0,0,0,0,0,0,0,0,0,0,0,0,0,0,0,0,0,0,0,0,0,0,0,0,0,0,0,0,0,0,0,0,0,0,0,0,0,0,0,0,0,0,0,0,0,0,0,0,-1.1656,-1.1654,0,-1.1467,-1.1465,-1.1463,-1.1398,-1.1399,-1.14,-1.14,-1.1206,-1.12,-1.1194,0,0,0,0,0,0,0,0,0,0,0,0,0,-1.1962,-1.1956,-1.1656,-1.1654,-1.1652,-1.1467,-1.1465,-1.1462,-1.1398,-1.1399,-1.14,-1.1401,-1.1208,-1.1201,-1.1194,0,0,0,0,0,0,0,0,0,0,0,0,0,-1.1807,-1.1955,-1.1657,-1.1597,-1.159,-1.1468,-1.1465,-1.1461,-1.1398,-1.1399,-1.14,-1.1401,-1.121,-1.1201,-1.1193,-1.1115,0,0,-1.1166,-1.1162,0,0,0,0,0,0,0,0,-1.1815,-1.1795,-1.1608,-1.1601,-1.1593,-1.1457,-1.1501,-1.1345,-1.1397,-1.1471,-1.14,-1.1402,-1.1288,-1.1273,-1.1235,-1.1106,-1.1098,-1.1165,-1.116,-1.1156,-1.1153,0,0,0,0,0,0,0,-1.1826,-1.1803,-1.1581,-1.1606,-1.1596,-1.158,-1.1559,-1.1471,-1.1376,-1.1464,-1.1459,-1.1438,-1.1284,-1.1244,-1.123,-1.1095,-1.1165,-1.1157,-1.1152,-1.1148,-1.0893,-1.0892,0,0,0,0,0,0,-1.1847,-1.1813,-1.1587,-1.1576,-1.1709,-1.1574,-1.155,-1.15,-1.1376,-1.1359,-1.1437,-1.1436,-1.1258,-1.1241,-1.1223,-1.1124,-1.1156,-1.1148,-1.1143,-1.0895,-1.0893,-1.0891,0,0,0,0,0,0,-1.1854,-1.1828,-1.1595,-1.1693,-1.1662,-1.1567,-1.1511,-1.1495,-1.1455,-1.1356,-1.1338,-1.1413,-1.1259,-1.1236,-1.1143,-1.1116,-1.1144,-1.1136,-1.0896,-1.0894,-1.0892,-1.0926,0,0,0,0,0,0,-1.1863,-1.183,-1.18,-1.1692,-1.1657,-1.1518,-1.1509,-1.1491,-1.144,-1.1436,-1.1329,-1.1312,-1.1258,-1.1156,-1.1134,-1.1105,-1.1129,-1.0898,-1.0895,-1.0893,-1.0926,-1.0925,-1.0923,0,0,0,0,0,-1.1874,-1.1817,-1.1799,-1.1772,-1.1617,-1.1516,-1.1496,-1.1435,-1.1438,-1.1406,-1.1343,-1.1315,-1.1123,-1.1147,-1.1122,-1.1089,-1.09,-1.0896,-1.0893,-1.0927,-1.0925,-1.0923,0,0,0,0,0,0,-1.1923,-1.1802,-1.178,-1.1687,-1.1612,-1.1506,-1.1464,-1.1435,-1.1358,-1.1358,-1.1285,-1.1262,-1.1174,-1.1123,-1.1152,-1.1008,-1.101,-1.1001,-1.1045,-1.1042,-1.1041,-1.1054,-1.1121,0,0,0,0,0,-1.1923,-1.1852,-1.175,-1.1677,-1.1641,-1.1559,-1.1513,-1.1473,-1.1393,-1.1361,-1.1291,-1.1214,-1.1136,-1.1086,-1.1009,-1.0919,-1.0895,-1.0884,-1.0883,-1.0882,-1.0875,-1.0823,-1.0817,-1.088,-1.088,-1.088,0,0,-1.1922,-1.1847,-1.1807,-1.1685,-1.1623,-1.155,-1.1533,-1.1457,-1.1403,-1.1349,-1.1257,-1.1203,-1.1113,-1.1021,-1.0977,-1.0975,-1.0853,-1.0878,-1.0878,-1.0871,-1.0819,-1.0813,-1.0808,-1.0878,-1.0878,-1.0879,0,0,-1.1883,-1.182,-1.1752,-1.169,-1.1596,-1.1543,-1.1527,-1.1424,-1.1386,-1.1293,-1.1252,-1.1186,-1.1054,-1.0991,-1.0942,-1.0881,-1.0852,-1.0858,-1.0849,-1.08,-1.0795,-1.079,-1.0767,-1.076,-1.0851,-1.0852,-1.0852,0,-1.1894,-1.1783,-1.1721,-1.1647,-1.1594,-1.1544,-1.1474,-1.1418,-1.1304,-1.1268,-1.1269,-1.1102,-1.1037,-1.093,-1.0915,-1.0877,-1.0856,-1.0869,-1.0801,-1.0795,-1.079,-1.0767,-1.0759,-1.0853,-1.0853,-1.0852,-1.0852,0,-1.1801,-1.1725,-1.1681,-1.1573,-1.1515,-1.1444,-1.1371,-1.1321,-1.1286,-1.1233,-1.1138,-1.106,-1.0966,-1.0938,-1.0903,-1.0825,-1.0827,-1.0815,-1.0815,-1.0786,-1.0764,-1.0755,-1.0854,-1.0854,-1.0854,-1.0853,0,0,-1.1785,-1.1644,-1.1629,-1.1579,-1.1473,-1.1413,-1.134,-1.1248,-1.1206,-1.113,-1.1066,-1.0956,-1.0945,-1.0889,-1.0847,-1.0804,-1.0759,-1.0796,-1.0793,-1.0791,-1.0669,-1.0678,-1.0669,-1.0741,-1.0739,-1.0737,-1.0676,0,-1.1732,-1.1599,-1.1541,-1.1434,-1.1363,-1.1315,-1.1251,-1.1179,-1.1127,-1.1059,-1.1002,-1.0925,-1.0916,-1.0882,-1.0837,-1.0775,-1.0734,-1.0778,-1.068,-1.0678,-1.0703,-1.0657,-1.0666,-1.0611,-1.0667,-1.0665,-1.0664,0,-1.1651,-1.1574,-1.1461,-1.1363,-1.1331,-1.1275,-1.1186,-1.1123,-1.104,-1.1005,-1.0944,-1.0904,-1.0826,-1.0833,-1.0723,-1.0755,-1.0712,-1.0675,-1.0672,-1.0659,-1.0668,-1.0642,-1.0593,-1.0584,-1.065,-1.0651,-1.0652,0,-1.165,-1.1519,-1.1434,-1.1393,-1.1277,-1.1238,-1.1188,-1.1107,-1.1056,-1.0979,-1.0945,-1.0861,-1.0814,-1.0749,-1.0687,-1.0698,-1.0584,-1.0586,-1.0552,-1.0554,-1.0529,-1.0531,-1.0471,-1.0504,-1.0504,-1.0504,-1.0504,0,-1.1595,-1.1527,-1.1432,-1.1379,-1.1302,-1.1237,-1.1162,-1.1108,-1.1037,-1.0973,-1.0927,-1.0868,-1.079,-1.0722,-1.0673,-1.059,-1.0569,-1.0539,-1.0527,-1.0542,-1.0546,-1.0512,-1.0513,-1.0502,-1.0502,-1.0503,-1.0503,0,-1.158,-1.1513,-1.1417,-1.1316,-1.1289,-1.1237,-1.115,-1.1097,-1.1044,-1.0964,-1.0942,-1.0858,-1.0775,-1.0708,-1.0599,-1.0567,-1.0479,-1.0465,-1.0507,-1.05,-1.047,-1.0473,-1.0384,-1.0369,-1.0414,-1.0414,-1.0414,0,-1.1548,-1.1495,-1.1388,-1.1343,-1.1293,-1.122,-1.1168,-1.1102,-1.105,-1.0952,-1.0912,-1.0825,-1.0753,-1.0623,-1.0552,-1.0469,-1.0452,-1.0427,-1.0439,-1.0457,-1.045,-1.0454,-1.0448,-1.0425,-1.0425,-1.0425,-1.0425,0,-1.1499,-1.1469,-1.1396,-1.1311,-1.1251,-1.1181,-1.111,-1.1075,-1.0996,-1.094,-1.0855,-1.0799,-1.0688,-1.0603,-1.0513,-1.0461,-1.0429,-1.0422,-1.0409,-1.0424,-1.045,-1.0434,-1.0502,-1.0424,-1.0424,-1.0424,-1.0424,-1.0424,-1.1473,-1.1424,-1.1341,-1.1262,-1.1202,-1.1137,-1.1082,-1.1023,-1.0951,-1.0856,-1.0822,-1.0734,-1.0653,-1.0529,-1.0477,-1.0408,-1.0404,-1.0387,-1.0382,-1.0378,-1.038,-1.0462,-1.0391,-1.0391,-1.0391,-1.0391,-1.0391,0,-1.1421,-1.1366,-1.1293,-1.1196,-1.1133,-1.111,-1.1031,-1.098,-1.0903,-1.0831,-1.0761,-1.0663,-1.0581,-1.0505,-1.0419,-1.0378,-1.0361,-1.0357,-1.0359,-1.0347,-1.0388,-1.0407,-1.0372,-1.0372,-1.0372,-1.0372,-1.0372,-1.0372,-1.1386,-1.1301,-1.1261,-1.1146,-1.1091,-1.1005,-1.0962,-1.0902,-1.0844,-1.0737,-1.0668,-1.062,-1.0546,-1.0454,-1.0377,-1.0357,-1.0327,-1.0327,-1.0303,-1.0342,-1.0344,-1.0347,-1.0364,-1.0321,-1.0321,-1.0267,-1.0267,-1.0267]},{"header":{"parameterUnit":"m.s-1","parameterCategory":1,"la1":30.2991,"la2":30.254,"lo1":-89.0895,"lo2":-89.0444,"dy":0.0017,"dx":0.0017,"nx":28,"ny":28,"refTime":"2024-05-19T09:00:00:Z","depth":0,"parameterNumber":3,"parameterNumberName":"V-component_of_WINDS"},"data":[0,0,0,0,0,0,0,0,0,0,0,0,0,0,0,0,0,0,0,0,0,0,0,0,0,0,0,0,0,0,0,0,0,0,0,0,0,0,0,0,0,0,0,0,0,0,0,0,0,0,0,0,0,0,0,0,0,0,0.3763,0.3761,0,0.3663,0.3662,0.3661,0.3627,0.3627,0.3627,0.3628,0.3524,0.3521,0.3518,0,0,0,0,0,0,0,0,0,0,0,0,0,0.3919,0.3916,0.3763,0.3761,0.376,0.3664,0.3662,0.3661,0.3626,0.3627,0.3627,0.3628,0.3525,0.3521,0.3517,0,0,0,0,0,0,0,0,0,0,0,0,0,0.3839,0.3915,0.3763,0.3731,0.3728,0.3664,0.3662,0.3661,0.3626,0.3627,0.3628,0.3628,0.3526,0.3521,0.3517,0.3476,0,0,0.3502,0.35,0,0,0,0,0,0,0,0,0.3843,0.3833,0.3737,0.3733,0.3729,0.3658,0.3679,0.3599,0.3626,0.3665,0.3628,0.3628,0.3568,0.356,0.354,0.3471,0.3467,0.3502,0.3499,0.3497,0.3496,0,0,0,0,0,0,0,0.3849,0.3837,0.3723,0.3736,0.3731,0.3721,0.371,0.3664,0.3614,0.3661,0.3659,0.3648,0.3566,0.3544,0.3537,0.3465,0.3502,0.3498,0.3495,0.3493,0.3357,0.3356,0,0,0,0,0,0,0.386,0.3842,0.3726,0.372,0.3789,0.3718,0.3706,0.368,0.3615,0.3605,0.3647,0.3646,0.3552,0.3543,0.3533,0.3481,0.3497,0.3493,0.349,0.3358,0.3357,0.3356,0,0,0,0,0,0,0.3863,0.385,0.373,0.378,0.3764,0.3715,0.3686,0.3678,0.3657,0.3604,0.3595,0.3635,0.3552,0.354,0.349,0.3476,0.3491,0.3486,0.3359,0.3358,0.3357,0.3376,0,0,0,0,0,0,0.3868,0.3852,0.3837,0.378,0.3762,0.3691,0.3685,0.3676,0.3649,0.3647,0.359,0.3581,0.3552,0.3498,0.3486,0.347,0.3483,0.336,0.3358,0.3357,0.3376,0.3375,0.3375,0,0,0,0,0,0.3874,0.3846,0.3836,0.3822,0.3742,0.369,0.3679,0.3647,0.3648,0.3632,0.3598,0.3583,0.348,0.3493,0.3479,0.3462,0.3361,0.3359,0.3357,0.3376,0.3375,0.3375,0,0,0,0,0,0,0.3901,0.3838,0.3826,0.3779,0.374,0.3684,0.3663,0.3647,0.3606,0.3606,0.3567,0.3554,0.3508,0.348,0.3495,0.3419,0.3419,0.3415,0.3439,0.3437,0.3437,0.3444,0.3479,0,0,0,0,0,0.3902,0.3866,0.3812,0.3775,0.3756,0.3713,0.3689,0.3668,0.3625,0.3608,0.3571,0.3529,0.3487,0.3461,0.342,0.3372,0.3358,0.3353,0.3352,0.3352,0.3348,0.332,0.3316,0.335,0.335,0.335,0,0,0.3903,0.3863,0.3843,0.378,0.3747,0.3709,0.3699,0.366,0.3631,0.3602,0.3553,0.3524,0.3475,0.3426,0.3403,0.3401,0.3336,0.335,0.335,0.3346,0.3317,0.3314,0.3312,0.3349,0.3349,0.3349,0,0,0.3885,0.3852,0.3817,0.3785,0.3735,0.3706,0.3698,0.3644,0.3624,0.3574,0.3551,0.3516,0.3445,0.3411,0.3384,0.3352,0.3336,0.334,0.3336,0.3308,0.3305,0.3303,0.329,0.3287,0.3336,0.3336,0.3336,0,0.3892,0.3835,0.3802,0.3763,0.3735,0.3708,0.3672,0.3641,0.3581,0.3562,0.3562,0.3471,0.3437,0.3379,0.3371,0.335,0.3339,0.3346,0.3309,0.3306,0.3303,0.329,0.3286,0.3337,0.3337,0.3337,0.3337,0,0.3845,0.3806,0.3784,0.3727,0.3696,0.3659,0.3619,0.3593,0.3573,0.3544,0.3493,0.345,0.34,0.3384,0.3365,0.3323,0.3324,0.3317,0.3316,0.3301,0.3289,0.3284,0.3338,0.3338,0.3337,0.3337,0,0,0.3842,0.3766,0.3759,0.3732,0.3675,0.3643,0.3604,0.3555,0.3532,0.3491,0.3457,0.3397,0.339,0.336,0.3336,0.3312,0.3288,0.3307,0.3306,0.3305,0.3237,0.3243,0.3238,0.3277,0.3276,0.3275,0.3241,0,0.3816,0.3747,0.3715,0.3659,0.3622,0.3594,0.356,0.3521,0.3492,0.3455,0.3423,0.3381,0.3375,0.3356,0.3331,0.3296,0.3274,0.3298,0.3243,0.3242,0.3256,0.3232,0.3238,0.3208,0.3236,0.3235,0.3235,0,0.3777,0.3736,0.3677,0.3623,0.3606,0.3576,0.3528,0.3493,0.3447,0.3428,0.3394,0.3371,0.3328,0.3331,0.327,0.3287,0.3262,0.3242,0.324,0.3233,0.3237,0.3224,0.3197,0.3193,0.3227,0.3228,0.3228,0,0.378,0.371,0.3665,0.3643,0.3579,0.3559,0.3531,0.3486,0.3458,0.3415,0.3396,0.3349,0.3323,0.3286,0.3251,0.3256,0.3192,0.3193,0.3174,0.3175,0.3162,0.3163,0.3131,0.3147,0.3147,0.3147,0.3147,0,0.3754,0.3719,0.3665,0.3638,0.3597,0.356,0.352,0.349,0.345,0.3415,0.3388,0.3355,0.331,0.3272,0.3244,0.3197,0.3185,0.3167,0.316,0.317,0.3172,0.3153,0.3154,0.3146,0.3146,0.3147,0.3147,0,0.3751,0.3714,0.3663,0.3607,0.3592,0.3564,0.3515,0.3486,0.3456,0.3412,0.3399,0.3352,0.3305,0.3266,0.3204,0.3185,0.3136,0.3128,0.3152,0.3148,0.3131,0.3133,0.3085,0.3076,0.3099,0.3099,0.3099,0,0.3737,0.3709,0.365,0.3625,0.3597,0.3557,0.3529,0.3491,0.3462,0.3407,0.3384,0.3336,0.3295,0.3221,0.318,0.3132,0.3122,0.3108,0.3115,0.3124,0.3121,0.3123,0.3119,0.3108,0.3108,0.3108,0.3108,0,0.3715,0.3698,0.3658,0.3612,0.3578,0.3539,0.35,0.348,0.3435,0.3403,0.3356,0.3324,0.3261,0.3212,0.316,0.313,0.3111,0.3106,0.3099,0.3108,0.3123,0.3114,0.315,0.3107,0.3107,0.3107,0.3108,0.3108,0.3706,0.3679,0.3633,0.3589,0.3555,0.3518,0.3489,0.3454,0.3414,0.336,0.334,0.329,0.3243,0.3171,0.3141,0.3101,0.3099,0.3089,0.3086,0.3084,0.3085,0.313,0.3091,0.3091,0.3091,0.3091,0.3091,0,0.3682,0.3651,0.3611,0.3557,0.3522,0.3507,0.3462,0.3434,0.3391,0.3349,0.3309,0.3253,0.3206,0.3161,0.311,0.3087,0.3077,0.3075,0.3076,0.3069,0.3091,0.3101,0.3084,0.3084,0.3084,0.3084,0.3084,0.3084,0.3666,0.362,0.3597,0.3533,0.3502,0.3454,0.3429,0.3395,0.3361,0.33,0.3261,0.3232,0.3188,0.3134,0.309,0.3077,0.306,0.306,0.3046,0.3067,0.3068,0.3069,0.3079,0.3057,0.3057,0.3027,0.3027,0.3027]}]]